Overview Statistics Trail Chart Weather Telemetry Raw packets
 

This is the latest recevied weather packets stored in our database for station/object KI5NXU. If no packets are shown the sender has not sent any weather packets the latest 10 day(s).

<< 35 36 37 38 39 40 41 >>
Time Temp. Humidity Pressure Rain* Wind** Luminosity Snow
1788137812 35.56° C 31% 1012 hPa 0 mm - 3 W/m² -
1788137507 35.56° C 31% 1012 hPa 0 mm - 6 W/m² -
1788137203 35.56° C 31% 1011.8 hPa 0 mm - 10 W/m² -
1788136899 36.11° C 30% 1011.9 hPa 0 mm - 14 W/m² -
1788136595 36.11° C 30% 1011.8 hPa 0 mm - 18 W/m² -
1788136290 36.67° C 30% 1011.8 hPa 0 mm - 25 W/m² -
1788135989 36.67° C 29% 1011.6 hPa 0 mm - 29 W/m² -
1788135684 37.22° C 29% 1011.8 hPa 0 mm - 39 W/m² -
1788135380 37.78° C 28% 1011.9 hPa 0 mm - 45 W/m² -
1788135075 37.78° C 28% 1011.7 hPa 0 mm - 54 W/m² -
1788134772 37.78° C 28% 1012 hPa 0 mm - 73 W/m² -
1788134472 38.33° C 28% 1011.9 hPa 0 mm - 75 W/m² -
1788134170 38.33° C 28% 1011.8 hPa 0 mm - 86 W/m² -
1788133865 38.89° C 27% 1011.8 hPa 0 mm - 99 W/m² -
1788133560 38.89° C 28% 1011.8 hPa 0 mm - 115 W/m² -
1788133255 38.89° C 28% 1012.1 hPa 0 mm - 133 W/m² -
1788132950 38.33° C 28% 1012.1 hPa 0 mm - 154 W/m² -
1788132647 38.89° C 27% 1011.9 hPa 0 mm - 167 W/m² -
1788132342 38.89° C 27% 1012.1 hPa 0 mm - 178 W/m² -
1788132038 39.44° C 27% 1012.1 hPa 0 mm - 195 W/m² -
1788131734 39.44° C 27% 1012 hPa 0 mm - 222 W/m² -
1788131433 38.89° C 27% 1012.1 hPa 0 mm - 234 W/m² -
1788131128 39.44° C 27% 1012 hPa 0 mm - 250 W/m² -
1788130823 39.44° C 27% 1012 hPa 0 mm - 269 W/m² -
1788130519 39.44° C 27% 1012.2 hPa 0 mm - 271 W/m² -

* Rain latest hour (hover to see other rain measurements)
** Current wind speed in m/s (hover to see current wind gust speed)